Location: *
(45.9500°N, 9.0833°E)
Time: 20:07:45
(UTC+00:00)

Tiros 1 - Pass Details

Date: 24 June 2021
Orbit: 630 x 664 km, 48.4° (Epoch: 05 August)

Event Time Altitude Azimuth Distance (km) Brightness Sun altitude
Rises 07:50:15 0° 225° (SW) 2,905 10.2 41.4°
Reaches altitude 10° 07:52:37 10° 219° (SW) 2,002 9.5 41.8°
Maximum altitude 07:56:59 43° 148° (SSE) 887 9.0 42.5°
Drops below altitude 10° 08:01:23 10° 77° (ENE) 2,024 10.6 43.3°
Sets 08:03:48 0° 71° (ENE) 2,940 11.1 43.7°
